When you browse on this site, cookies collect data to enhance your experience and personalize the content and advertising you see.
Visit our Privacy Policy to learn more. By continuing to use the site, you agree to this use of cookies and data.
EN

Hourly Weather Neustrelitz

Today, 3 July, Friday

Time Temperature Precipitation Wind Pressure Humidity
00:00 +16°C° 0.5 mm 2 mps 751 mmHg 94%
01:00 +16°C° 0.5 mm 2 mps 751 mmHg 95%
02:00 +14°C° 0.7 mm 3 mps 751 mmHg 96%
03:00 +14°C° 0.7 mm 3 mps 751 mmHg 96%
04:00 +14°C° 0.7 mm 3 mps 751 mmHg 96%
05:00 +14°C° 0 mm 3 mps 752 mmHg 94%
06:00 +15°C° 0 mm 4 mps 752 mmHg 92%
07:00 +15°C° 0 mm 4 mps 753 mmHg 90%
08:00 +17°C° 0.2 mm 4 mps 753 mmHg 84%
09:00 +18°C° 0.2 mm 4 mps 753 mmHg 79%
10:00 +19°C° 0.2 mm 3 mps 753 mmHg 74%
11:00 +20°C° 0.2 mm 4 mps 753 mmHg 69%
12:00 +21°C° 0.2 mm 4 mps 753 mmHg 65%
13:00 +21°C° 0.2 mm 4 mps 753 mmHg 60%
14:00 +22°C° 0.1 mm 4 mps 753 mmHg 59%
15:00 +22°C° 0.1 mm 4 mps 753 mmHg 59%
16:00 +22°C° 0.1 mm 4 mps 753 mmHg 58%
17:00 +21°C° 0.3 mm 3 mps 753 mmHg 66%
18:00 +20°C° 0.3 mm 3 mps 753 mmHg 73%
19:00 +19°C° 0.3 mm 2 mps 753 mmHg 81%
20:00 +18°C° 0 mm 2 mps 753 mmHg 84%
21:00 +17°C° 0 mm 2 mps 753 mmHg 87%
22:00 +16°C° 0 mm 2 mps 754 mmHg 90%
23:00 +15°C° 0 mm 2 mps 754 mmHg 92%

Tomorrow, 4 July, Saturday

Time Temperature Precipitation Wind Pressure Humidity
00:00 +14°C° 0 mm 3 mps 754 mmHg 93%
01:00 +14°C° 0 mm 3 mps 753 mmHg 94%
02:00 +14°C° 0 mm 3 mps 753 mmHg 92%
03:00 +14°C° 0 mm 4 mps 753 mmHg 91%
04:00 +14°C° 0 mm 4 mps 753 mmHg 90%
05:00 +15°C° 0 mm 4 mps 753 mmHg 86%
06:00 +15°C° 0 mm 5 mps 753 mmHg 83%
07:00 +15°C° 0 mm 5 mps 753 mmHg 80%
08:00 +15°C° 0 mm 5 mps 753 mmHg 81%
09:00 +15°C° 0 mm 5 mps 753 mmHg 82%
10:00 +15°C° 0 mm 5 mps 753 mmHg 83%
11:00 +15°C° 0 mm 6 mps 753 mmHg 81%
12:00 +16°C° 0 mm 6 mps 753 mmHg 80%
13:00 +16°C° 0 mm 6 mps 754 mmHg 78%
14:00 +17°C° 0 mm 5 mps 753 mmHg 77%
15:00 +17°C° 0 mm 5 mps 753 mmHg 76%
16:00 +19°C° 0 mm 5 mps 753 mmHg 75%
17:00 +19°C° 0 mm 5 mps 753 mmHg 76%
18:00 +19°C° 0 mm 4 mps 752 mmHg 77%
19:00 +19°C° 0 mm 4 mps 752 mmHg 78%
20:00 +19°C° 0 mm 4 mps 752 mmHg 80%
21:00 +18°C° 0 mm 4 mps 752 mmHg 82%
22:00 +18°C° 0 mm 4 mps 751 mmHg 83%
23:00 +17°C° 0.6 mm 4 mps 751 mmHg 87%

Day after tomorrow, 5 July, Sunday

Time Temperature Precipitation Wind Pressure Humidity
00:00 +16°C° 0.6 mm 5 mps 751 mmHg 90%
01:00 +16°C° 0.6 mm 5 mps 750 mmHg 94%
02:00 +16°C° 0.5 mm 5 mps 750 mmHg 94%
03:00 +16°C° 0.5 mm 6 mps 750 mmHg 94%
04:00 +16°C° 0.5 mm 6 mps 750 mmHg 95%
05:00 +16°C° 0.1 mm 5 mps 750 mmHg 94%
06:00 +16°C° 0.1 mm 5 mps 750 mmHg 94%
07:00 +17°C° 0.1 mm 5 mps 750 mmHg 94%
08:00 +17°C° 0.1 mm 5 mps 750 mmHg 91%
09:00 +19°C° 0.1 mm 5 mps 750 mmHg 89%
10:00 +19°C° 0.1 mm 6 mps 750 mmHg 87%
11:00 +20°C° 0.2 mm 6 mps 750 mmHg 83%
12:00 +21°C° 0.2 mm 7 mps 749 mmHg 79%
13:00 +22°C° 0.2 mm 8 mps 749 mmHg 75%
14:00 +22°C° 0.1 mm 7 mps 748 mmHg 74%
15:00 +22°C° 0.1 mm 7 mps 748 mmHg 74%
16:00 +22°C° 0.1 mm 7 mps 748 mmHg 73%
17:00 +21°C° 0.1 mm 7 mps 748 mmHg 74%
18:00 +21°C° 0.1 mm 7 mps 747 mmHg 76%
19:00 +20°C° 0.1 mm 7 mps 747 mmHg 77%
20:00 +20°C° 0.1 mm 6 mps 747 mmHg 79%
21:00 +19°C° 0.1 mm 6 mps 748 mmHg 81%
22:00 +17°C° 0.1 mm 5 mps 748 mmHg 83%
23:00 +16°C° 0.1 mm 5 mps 748 mmHg 84%

6 July, Monday

Time Temperature Precipitation Wind Pressure Humidity
00:00 +15°C° 0.1 mm 4 mps 748 mmHg 85%
01:00 +14°C° 0.1 mm 4 mps 748 mmHg 85%
02:00 +14°C° 0 mm 4 mps 748 mmHg 83%
03:00 +14°C° 0 mm 3 mps 748 mmHg 82%
04:00 +14°C° 0 mm 3 mps 748 mmHg 80%
05:00 +14°C° 0 mm 4 mps 748 mmHg 77%
06:00 +15°C° 0 mm 4 mps 748 mmHg 74%
07:00 +17°C° 0 mm 4 mps 748 mmHg 70%
08:00 +17°C° 0.2 mm 5 mps 748 mmHg 69%
09:00 +17°C° 0.2 mm 6 mps 748 mmHg 67%
10:00 +18°C° 0.2 mm 7 mps 748 mmHg 65%
11:00 +18°C° 0.1 mm 7 mps 748 mmHg 62%
12:00 +18°C° 0.1 mm 7 mps 748 mmHg 58%
13:00 +18°C° 0.1 mm 8 mps 748 mmHg 54%
14:00 +18°C° 0.3 mm 7 mps 749 mmHg 56%
15:00 +18°C° 0.3 mm 7 mps 749 mmHg 59%
16:00 +18°C° 0.3 mm 7 mps 750 mmHg 61%
17:00 +17°C° 0.1 mm 6 mps 750 mmHg 64%
18:00 +16°C° 0.1 mm 5 mps 750 mmHg 66%
19:00 +17°C° 0.1 mm 4 mps 751 mmHg 68%
20:00 +15°C° 0 mm 4 mps 751 mmHg 73%
21:00 +13°C° 0 mm 4 mps 752 mmHg 78%
22:00 +12°C° 0 mm 4 mps 752 mmHg 83%
23:00 +12°C° 0 mm 4 mps 753 mmHg 84%

7 July, Tuesday

Time Temperature Precipitation Wind Pressure Humidity
00:00 +11°C° 0 mm 4 mps 753 mmHg 85%
01:00 +11°C° 0 mm 4 mps 754 mmHg 86%
02:00 +10°C° 0 mm 4 mps 754 mmHg 85%
03:00 +10°C° 0 mm 4 mps 755 mmHg 84%
04:00 +8°C° 0 mm 4 mps 755 mmHg 83%
05:00 +10°C° 0 mm 4 mps 755 mmHg 77%
06:00 +10°C° 0 mm 5 mps 756 mmHg 71%
07:00 +13°C° 0 mm 5 mps 756 mmHg 65%
08:00 +14°C° 0.1 mm 6 mps 756 mmHg 64%
09:00 +14°C° 0.1 mm 6 mps 757 mmHg 64%
10:00 +15°C° 0.1 mm 7 mps 757 mmHg 63%
11:00 +16°C° 0.1 mm 7 mps 756 mmHg 61%
12:00 +17°C° 0.1 mm 7 mps 756 mmHg 58%
13:00 +17°C° 0.1 mm 6 mps 756 mmHg 56%
14:00 +17°C° 0.2 mm 6 mps 756 mmHg 59%
15:00 +16°C° 0.2 mm 6 mps 756 mmHg 63%
16:00 +16°C° 0.2 mm 5 mps 756 mmHg 66%
17:00 +15°C° 0.2 mm 5 mps 756 mmHg 71%
18:00 +14°C° 0.2 mm 5 mps 756 mmHg 75%
19:00 +14°C° 0.2 mm 5 mps 756 mmHg 80%
20:00 +13°C° 0.1 mm 4 mps 756 mmHg 83%
21:00 +12°C° 0.1 mm 4 mps 756 mmHg 86%
22:00 +11°C° 0.1 mm 4 mps 756 mmHg 89%
23:00 +10°C° 0 mm 4 mps 756 mmHg 90%

8 July, Wednesday

Time Temperature Precipitation Wind Pressure Humidity
00:00 +10°C° 0 mm 4 mps 756 mmHg 91%
01:00 +8°C° 0 mm 4 mps 756 mmHg 92%
02:00 +8°C° 0 mm 4 mps 756 mmHg 92%
03:00 +7°C° 0 mm 4 mps 756 mmHg 92%
04:00 +7°C° 0 mm 4 mps 756 mmHg 92%
05:00 +8°C° 0 mm 4 mps 757 mmHg 87%
06:00 +10°C° 0 mm 5 mps 757 mmHg 81%
07:00 +12°C° 0 mm 5 mps 757 mmHg 76%
08:00 +13°C° 0 mm 5 mps 757 mmHg 70%
09:00 +14°C° 0 mm 5 mps 758 mmHg 65%
10:00 +15°C° 0 mm 5 mps 758 mmHg 60%
11:00 +16°C° 0 mm 5 mps 758 mmHg 60%
12:00 +16°C° 0 mm 5 mps 758 mmHg 59%
13:00 +16°C° 0 mm 5 mps 758 mmHg 59%
14:00 +17°C° 0 mm 4 mps 758 mmHg 58%
15:00 +18°C° 0 mm 4 mps 758 mmHg 58%
16:00 +18°C° 0 mm 4 mps 757 mmHg 57%
17:00 +18°C° 0 mm 3 mps 757 mmHg 61%
18:00 +17°C° 0 mm 2 mps 757 mmHg 65%
19:00 +17°C° 0 mm 2 mps 757 mmHg 70%
20:00 +16°C° 0 mm 1 mps 757 mmHg 75%
21:00 +14°C° 0 mm 1 mps 757 mmHg 79%
22:00 +13°C° 0 mm 1 mps 757 mmHg 84%
23:00 +12°C° 0 mm 1 mps 757 mmHg 85%
Show more